| time (UTC) | temp C | wind direction | speed KPH | gust KPH | rain 1hr cm | rain 24hr cm | rain mn cm | humidity % | barometer mb |
| 20260504215547 | 23 | 261 | 8.0 | 19.3 | 0.00 | 0.00 | 0.00 | 24 | 1005.5 |
| 20260504214530 | 23 | 210 | 6.4 | 9.7 | 0.00 | 0.00 | 0.00 | 24 | 1005.5 |
| 20260504213516 | 23 | 240 | 6.4 | 14.5 | 0.00 | 0.00 | 0.00 | 23 | 1005.5 |
| 20260504212519 | 23 | 232 | 8.0 | 17.7 | 0.00 | 0.00 | 0.00 | 24 | 1005.5 |
| 20260504211542 | 23 | 233 | 6.4 | 12.9 | 0.00 | 0.00 | 0.00 | 24 | 1005.5 |
| 20260504210526 | 23 | 252 | 1.6 | 4.8 | 0.00 | 0.00 | 0.00 | 25 | 1005.5 |
| 20260504205523 | 24 | 180 | 4.8 | 9.7 | 0.00 | 0.00 | 0.00 | 24 | 1005.3 |
| 20260504204520 | 23 | 241 | 6.4 | 14.5 | 0.00 | 0.00 | 0.00 | 24 | 1005.5 |
| 20260504203517 | 23 | 243 | 8.0 | 20.9 | 0.00 | 0.00 | 0.00 | 23 | 1005.4 |
| 20260504202520 | 24 | 226 | 8.0 | 17.7 | 0.00 | 0.00 | 0.00 | 23 | 1005.4 |
| 20260504201524 | 23 | 219 | 8.0 | 14.5 | 0.00 | 0.00 | 0.00 | 23 | 1005.5 |
| 20260504200527 | 23 | 252 | 9.7 | 12.9 | 0.00 | 0.00 | 0.00 | 24 | 1005.6 |
| 20260504195531 | 23 | 257 | 8.0 | 19.3 | 0.00 | 0.00 | 0.00 | 23 | 1005.6 |
| 20260504194516 | 23 | 262 | 9.7 | 19.3 | 0.00 | 0.00 | 0.00 | 23 | 1005.5 |
| 20260504193519 | 23 | 262 | 11.3 | 20.9 | 0.00 | 0.00 | 0.00 | 23 | 1005.6 |
| 20260504192522 | 23 | 308 | 8.0 | 12.9 | 0.00 | 0.00 | 0.00 | 23 | 1005.6 |
| 20260504191525 | 22 | 223 | 11.3 | 20.9 | 0.00 | 0.00 | 0.00 | 24 | 1005.6 |
| 20260504190529 | 23 | 207 | 9.7 | 16.1 | 0.00 | 0.00 | 0.00 | 23 | 1005.6 |
| 20260504185532 | 23 | 249 | 8.0 | 20.9 | 0.00 | 0.00 | 0.00 | 23 | 1005.8 |
| 20260504184517 | 22 | 206 | 8.0 | 14.5 | 0.00 | 0.00 | 0.00 | 23 | 1006.0 |
| 20260504183520 | 22 | 281 | 11.3 | 19.3 | 0.00 | 0.00 | 0.00 | 24 | 1006.1 |
| 20260504182524 | 22 | 193 | 6.4 | 11.3 | 0.00 | 0.00 | 0.00 | 24 | 1006.3 |
| 20260504181527 | 22 | 228 | 12.9 | 19.3 | 0.00 | 0.00 | 0.00 | 24 | 1006.3 |
| 20260504180531 | 22 | 289 | 11.3 | 16.1 | 0.00 | 0.00 | 0.00 | 24 | 1006.2 |
| 20260504175516 | 22 | 228 | 9.7 | 19.3 | 0.00 | 0.00 | 0.00 | 25 | 1006.2 |
| 20260504174519 | 22 | 256 | 11.3 | 19.3 | 0.00 | 0.00 | 0.00 | 25 | 1006.3 |
| 20260504173522 | 21 | 229 | 11.3 | 17.7 | 0.00 | 0.00 | 0.00 | 25 | 1006.7 |
| 20260504172526 | 21 | 241 | 11.3 | 19.3 | 0.00 | 0.00 | 0.00 | 25 | 1006.5 |
| 20260504171543 | 21 | 279 | 8.0 | 17.7 | 0.00 | 0.00 | 0.00 | 26 | 1006.6 |
| 20260504170520 | 21 | 298 | 16.1 | 30.6 | 0.00 | 0.00 | 0.00 | 25 | 1006.7 |
| 20260504150517 | 18 | 180 | 0.0 | 1.6 | 0.00 | 0.00 | 0.00 | 32 | 1007.7 |
| 20260504140519 | 17 | 214 | 3.2 | 11.3 | 0.00 | 0.00 | 0.00 | 36 | 1008.4 |
| 20260504130515 | 13 | 231 | 4.8 | 12.9 | 0.00 | 0.00 | 0.00 | 42 | 1009.0 |
| 20260504110524 | 8 | 0.0 | 0.0 | 0.00 | 0.00 | 0.00 | 53 | 1009.7 | |
| 20260504100545 | 6 | 0.0 | 0.0 | 0.00 | 0.00 | 0.00 | 56 | 1009.5 | |
| 20260504081525 | 6 | 0.0 | 0.0 | 0.00 | 0.00 | 0.00 | 56 | 1009.4 | |
| 20260504080528 | 6 | 0.0 | 0.0 | 0.00 | 0.00 | 0.00 | 55 | 1009.4 | |
| 20260504050516 | 2 | 0.0 | 0.0 | 0.00 | 0.00 | 0.00 | 71 | 1009.4 | |
| 20260504045519 | 2 | 0.0 | 0.0 | 0.00 | 0.00 | 0.00 | 71 | 1009.4 | |
| 20260504044522 | 1 | 0.0 | 0.0 | 0.00 | 0.00 | 0.00 | 71 | 1009.5 | |
| 20260504043525 | 2 | 0.0 | 0.0 | 0.00 | 0.00 | 0.00 | 71 | 1009.4 | |
| 20260504042529 | 2 | 0.0 | 0.0 | 0.00 | 0.00 | 0.00 | 71 | 1009.4 | |
| 20260504041532 | 2 | 0.0 | 0.0 | 0.00 | 0.00 | 0.00 | 71 | 1009.4 | |
| 20260504040537 | 2 | 0.0 | 0.0 | 0.00 | 0.00 | 0.00 | 71 | 1009.3 | |
| 20260504035520 | 1 | 0.0 | 0.0 | 0.00 | 0.00 | 0.00 | 70 | 1009.2 | |
| 20260504034524 | 1 | 0.0 | 0.0 | 0.00 | 0.00 | 0.00 | 70 | 1009.2 | |
| 20260504033527 | 2 | 0.0 | 0.0 | 0.00 | 0.00 | 0.00 | 69 | 1009.2 | |
| 20260504032530 | 2 | 0.0 | 0.0 | 0.00 | 0.00 | 0.00 | 69 | 1009.2 | |
| 20260504031516 | 2 | 0.0 | 0.0 | 0.00 | 0.00 | 0.00 | 69 | 1009.2 | |
| 20260504030519 | 2 | 0.0 | 0.0 | 0.00 | 0.00 | 0.00 | 68 | 1009.2 | |
| 20260504025522 | 2 | 0.0 | 0.0 | 0.00 | 0.00 | 0.00 | 66 | 1009.2 | |
| 20260504024546 | 2 | 0.0 | 0.0 | 0.00 | 0.00 | 0.00 | 64 | 1009.0 | |
| 20260504023543 | 2 | 0.0 | 0.0 | 0.00 | 0.00 | 0.00 | 64 | 1009.1 | |
| 20260504022520 | 3 | 0.0 | 0.0 | 0.00 | 0.00 | 0.00 | 64 | 1009.0 | |
| 20260504021517 | 3 | 0.0 | 0.0 | 0.00 | 0.00 | 0.00 | 63 | 1009.0 | |
| 20260504020535 | 3 | 0.0 | 0.0 | 0.00 | 0.00 | 0.00 | 61 | 1008.9 | |
| 20260504015524 | 3 | 0.0 | 0.0 | 0.00 | 0.00 | 0.00 | 61 | 1008.9 | |
| 20260504014607 | 4 | 0.0 | 0.0 | 0.00 | 0.00 | 0.00 | 60 | 1008.7 | |
| 20260504013530 | 4 | 0.0 | 0.0 | 0.00 | 0.00 | 0.00 | 59 | 1008.7 | |
| 20260504012516 | 5 | 0.0 | 0.0 | 0.00 | 0.00 | 0.00 | 55 | 1008.6 | |
| 20260504011519 | 5 | 0.0 | 0.0 | 0.00 | 0.00 | 0.00 | 55 | 1008.5 | |
| 20260504010522 | 6 | 0.0 | 0.0 | 0.00 | 0.00 | 0.00 | 52 | 1008.4 | |
| 20260504005606 | 6 | 0.0 | 0.0 | 0.00 | 0.00 | 0.00 | 50 | 1008.3 | |
| 20260504004549 | 7 | 0.0 | 0.0 | 0.00 | 0.00 | 0.00 | 49 | 1008.1 | |
| 20260504003532 | 7 | 0.0 | 0.0 | 0.00 | 0.00 | 0.00 | 49 | 1008.0 | |
| 20260504002517 | 8 | 0.0 | 0.0 | 0.00 | 0.00 | 0.00 | 45 | 1007.9 | |
| 20260504001521 | 8 | 0.0 | 0.0 | 0.00 | 0.00 | 0.00 | 42 | 1007.7 | |
| 20260504000524 | 8 | 0.0 | 0.0 | 0.00 | 0.00 | 0.00 | 42 | 1007.6 | |
| 20260503235527 | 9 | 281 | 0.0 | 4.8 | 0.00 | 0.00 | 0.00 | 40 | 1007.5 |
| 20260503234551 | 9 | 225 | 0.0 | 4.8 | 0.00 | 0.00 | 0.00 | 39 | 1007.4 |
| 20260503233516 | 10 | 320 | 1.6 | 4.8 | 0.00 | 0.00 | 0.00 | 38 | 1007.2 |
| 20260503232519 | 10 | 9 | 3.2 | 8.0 | 0.00 | 0.00 | 0.00 | 38 | 1007.1 |
| 20260503231523 | 10 | 218 | 1.6 | 8.0 | 0.00 | 0.00 | 0.00 | 37 | 1006.9 |
| 20260503230546 | 10 | 267 | 8.0 | 17.7 | 0.00 | 0.00 | 0.00 | 36 | 1006.8 |
| 20260503225523 | 11 | 205 | 3.2 | 16.1 | 0.00 | 0.00 | 0.00 | 36 | 1006.7 |
| 20260503224520 | 11 | 117 | 3.2 | 9.7 | 0.00 | 0.00 | 0.00 | 35 | 1006.6 |
| 20260503223517 | 11 | 36 | 3.2 | 9.7 | 0.00 | 0.00 | 0.00 | 36 | 1006.5 |
| 20260503222515 | 11 | 0.0 | 0.0 | 0.00 | 0.00 | 0.00 | 36 | 1006.4 | |
| 20260503221524 | 11 | 76 | 1.6 | 6.4 | 0.00 | 0.00 | 0.00 | 36 | 1006.3 |
| 20260503220528 | 11 | 57 | 4.8 | 8.0 | 0.00 | 0.00 | 0.00 | 35 | 1006.3 |